Find Starlink 5369

NORAD ID: 54837 Int'l Des: 2022-177 Owner: SPXS Country: US Constellation: starlink decayed
LEOCIRCULAR

Re-entered — May 26, 2026

正在加载3D地球...

About Starlink 5369

Starlink 5369 (NORAD 54837) is a starlink constellation satellite (v1.5) launched Dec 28, 2022 by SPXS of US. It re-entered the atmosphere on May 26, 2026. with a mass of 305.00 kg.

高度历史

Loading altitude history...

两行轨道根数

1 54837U 22177T 26146.09274194 .07267415 93102-5 47067-3 0 9990
2 54837 42.9869 34.7937 0008486 265.2687 94.7237 16.40586181189035
Epoch: May 26, 2026 • Age: 2428 hours

当前状态

Position data unavailable
发射日期 Dec 28, 2022
运行时间 3.6 years
衰减日期 May 26, 2026
类型 internet

技术详情

分类 Payload
质量 305.00 kg
干质量 290.00 kg
总质量 305.00 kg
长度 0.20 m
直径 2.80 m
跨度 9.00 m
形状 Box + pan
制造商 SPXS
平台类型 Starlink
阶段状态 Reentered
所有者/国家 SPXS/US

Most Searched